Regional Weather Roundup
Issued by NWS

Home | Current Version | Previous Version | Text Only | Print | Product List | Glossary Off
Versions: 1 2 3 4 5 6 7 8 9 10 11 12 13 14 15 16 17 18 19 20 21 22 23 24 25 26 27 28 29 30 31 32 33 34 35 36 37 38 39 40 41 42 43 44 45 46 47 48 49 50

000
ASUS45 KBOU 301607
RWRCO

WEATHER ROUNDUP FOR COLORADO
NATIONAL WEATHER SERVICE DENVER/BOULDER CO
1000 AM MDT SAT AUG 30 2014

NOTE: "FAIR" INDICATES FEW OR NO CLOUDS BELOW 12000 FEET WITH NO
SIGNIFICANT WEATHER AND/OR OBSTRUCTIONS TO VISIBILITY.

COZ001>005-013-030-031-301700-
...NORTHWEST COLORADO...

CITY           SKY/WX    TMP DP  RH WIND       PRES   REMARKS
CRAIG          MOSUNNY   69  47  45 E14       30.14F
HAYDEN         MOSUNNY   61  45  55 E12       30.17F
MEEKER         MOSUNNY   65  46  50 CALM      30.17F
MOUNT WERNER   NOT AVBL
STEAMBOAT SPGS MOSUNNY   58  46  63 CALM      30.20F
WALDEN         SUNNY     59  41  51 S9        30.25F
$$

COZ006>008-011-301700-
...WEST CENTRAL VALLEYS...

CITY           SKY/WX    TMP DP  RH WIND       PRES   REMARKS
GRAND JUNCTION MOSUNNY   69  48  47 SE13      30.09F
MONTROSE       MOSUNNY   70  43  37 CALM      30.18F
EAGLE          MOSUNNY   55  45  67 CALM      30.27F
RIFLE          MOSUNNY   63  47  55 SE3       30.16F
DELTA          NOT AVBL
NUCLA          MOSUNNY   68  43  40 CALM      30.22S
$$

COZ017>023-064>068-301700-
...SOUTHWEST COLORADO...

CITY           SKY/WX    TMP DP  RH WIND       PRES   REMARKS
DURANGO        SUNNY     67  40  37 E6        30.26S
CORTEZ         SUNNY     67  49  52 SE3       30.20F
PAGOSA SPRINGS SUNNY     66  35  31 SE5       30.33S
TELLURIDE      SUNNY     63  37  39 CALM      30.40R
WOLF CREEK PAS SUNNY     46  34  61 S12       30.57S
$$

COZ009-010-012-014-032>034-037-058>063-301700-
...CENTRAL COLORADO...

CITY           SKY/WX    TMP DP  RH WIND       PRES   REMARKS
ASPEN          MOSUNNY   63  42  46 CALM      30.28F
BUENA VISTA    SUNNY     58  37  45 S5        30.32F
COPPER MTN     SUNNY     54  32  43 W13G26    30.55R
BERTHOUD PASS  FAIR      41  41 100 NW14G24   30.57R
COTTONWOOD PAS SUNNY     57  37  47 SE5       30.42S
GUNNISON       SUNNY     54  39  58 CALM      30.36F
KREMMLING      SUNNY     54  41  62 E3        30.30F
LEADVILLE      SUNNY     52  39  61 CALM      30.41S
MONARCH PASS   SUNNY     46  34  61 SW18      30.66R
SALIDA         SUNNY     60  43  52 N3        30.36F
SUNLIGHT       MOSUNNY   55  43  62 CALM      30.49S
WILKERSON PASS NOT AVBL
$$

COZ069>075-301700-
...SAN LUIS VALLEY/SANGRE DE CRISTO MOUNTAINS...

CITY           SKY/WX    TMP DP  RH WIND       PRES   REMARKS
ALAMOSA        SUNNY     62  44  51 VRB6      30.32F
LA VETA PASS   NOT AVBL
SAGUACHE       NOT AVBL
$$

COZ035-036-038>040-301700-
...NORTHERN COLORADO FRONT RANGE...

CITY           SKY/WX    TMP DP  RH WIND       PRES   REMARKS
DENVER INTL AP MOSUNNY   72  47  40 SW10      30.08S
DMNS CITY PARK   N/A     71  45  39 S5G10     30.07S
AURORA         NOT AVBL
FRONT RANGE AP NOT AVBL
ERIE MUNI ARPT SUNNY     71  47  41 S6        30.06F
BOULDER MUN AP SUNNY     66  50  55 CALM      30.06F
CENTENNIAL     MOSUNNY   72  42  34 SW12      30.11F
BROOMFIELD     MOSUNNY   70  48  46 SE8       30.09F
FORT COLLINS   SUNNY     64  52  63 CALM      30.07F
LONGMONT       SUNNY     71  53  53 E5        30.07S
$$

COZ041-046-047-076>085-087-088-301700-
...PIKES PEAK/PALMER DIVIDE AND SOUTHERN FOOTHILLS...

CITY           SKY/WX    TMP DP  RH WIND       PRES   REMARKS
COLO. SPRINGS  MOSUNNY   71  46  40 CALM      30.17F
A. F. ACADEMY  SUNNY     68  46  45 VRB2      30.18
ELLICOTT       SUNNY     69  45  41 SW7       30.16S
FALCON         NOT AVBL
FORT CARSON    SUNNY     70  45  39 N5        30.14
LIMON          SUNNY     76  45  33 S14       30.10F
MONUMENT HILL  SUNNY     70  37  30 SW10      30.20S
TRINIDAD       SUNNY     77  44  30 S8        30.16F
$$

COZ042>045-048>051-090-091-301700-
...NORTHEAST COLORADO...

CITY           SKY/WX    TMP DP  RH WIND       PRES   REMARKS
GREELEY ARPT   SUNNY     63  48  59 CALM      30.06S
AKRON          SUNNY     73  49  42 SW12      30.04F
BURLINGTON     SUNNY     78  48  34 S15G22    30.06F
WRAY             N/A     74  59  58 S6        30.03S
STERLING       SUNNY     72  59  64 S6        30.01S
HOLYOKE        SUNNY     73  59  60 SE13      30.01F
FORT MORGAN    SUNNY     68  51  55 W10       30.04S
$$

COZ086-089-092>099-301700-
...SOUTHEAST COLORADO...

CITY           SKY/WX    TMP DP  RH WIND       PRES   REMARKS
PUEBLO         SUNNY     72  47  40 VRB6      30.09F
LA JUNTA       SUNNY     73  52  47 VRB5      30.08S
LAMAR          SUNNY     77  50  38 SE3       30.04F
SPRINGFIELD      N/A     77  53  43 S13       30.09F
$$



USA.gov is the U.S. government's official web portal to all federal, state and local government web resources and services.